Regional Weather Roundup
Issued by NWS

Home | Current Version | Previous Version | Text Only | Print | Product List | Glossary Off
Versions: 1 2 3 4 5 6 7 8 9 10 11 12 13 14 15 16 17 18 19 20 21 22 23 24 25 26 27 28 29 30 31 32 33 34 35 36 37 38 39 40 41 42 43 44 45 46 47 48 49 50

000
ASUS45 KCYS 262310
RWRWY

WYOMING REGIONAL WEATHER ROUNDUP
NATIONAL WEATHER SERVICE CHEYENNE WY
500 PM MDT TUE AUG 26 2014

NOTE:  "FAIR" INDICATES FEW OR NO CLOUDS BELOW 12,000 FEET
WITH NO SIGNIFICANT WEATHER AND/OR OBSTRUCTIONS TO VISIBILITY.

WYZ001-270000-
YELLOWSTONE NATIONAL PARK

CITY           SKY/WX    TMP DP  RH WIND       PRES   REMARKS
LK YELLOWSTONE   N/A     59  43  55 CALM      30.34F
W YELLOWSTONE  NOT AVBL

$$
WYZ002>013-054>058-071-098>099-270000-
NORTHERN WYOMING

CITY           SKY/WX    TMP DP  RH WIND       PRES   REMARKS
JACKSON        MOSUNNY   70  43  37 NW12      30.23F
CODY           MOSUNNY   72  50  46 NE6       30.16S
GREYBULL       SUNNY     80  42  25 VRB3      30.09F
WORLAND        MOSUNNY   79  44  28 N7        30.11F
SHERIDAN       MOSUNNY   78  46  32 N8        30.14S
BUFFALO        MOSUNNY   70  47  43 N5        30.20S
GILLETTE       SUNNY     77  48  35 N10       30.15S
HULETT         MOCLDY    72  54  53 MISG      30.16
NEWCASTLE      FAIR      79  43  27 CALM      30.11

$$
WYZ014>020-022>026-101>103-270000-
CENTRAL WYOMING

CITY           SKY/WX    TMP DP  RH WIND       PRES   REMARKS
BIG PINEY      CLOUDY    63  40  42 SE9       30.28S
PINEDALE       LGT RAIN  63  45  51 NW8       30.29S
DUBOIS         CLOUDY    64  34  32 N3        30.25R
LANDER         MOSUNNY   72  46  39 N3        30.16S
RIVERTON       MOSUNNY   74  41  30 VRB3      30.17S
CASPER         CLOUDY    75  50  41 N10       30.15S
DOUGLAS        MOSUNNY   81  48  31 CALM      30.13F

$$
WYZ021-027>030-104>119-270000-
SOUTHERN WYOMING

CITY           SKY/WX    TMP DP  RH WIND       PRES   REMARKS
EVANSTON       CLOUDY    58  45  62 SE7       30.31R
KEMMERER       CLOUDY    63  37  39 S15       30.31R
FORT BRIDGER   CLOUDY    57  50  79 SW9       30.33F
ROCK SPRINGS   CLOUDY    70  31  23 CALM      30.24S
DIXON          FAIR      71  49  45 SW14G20   30.28F
RAWLINS        CLOUDY    71  43  36 SW12      30.25F
SARATOGA       LGT RAIN  66  45  45 MISG      30.29S
LARAMIE        CLOUDY    71  41  33 N3        30.27S
CHEYENNE       CLOUDY    70  57  63 S14G31    30.22S
TORRINGTON     MOSUNNY   87  50  27 SW7       30.07S
PINE BLUFFS    CLOUDY    64  54  68 N8        30.19S

$$


USA.gov is the U.S. government's official web portal to all federal, state and local government web resources and services.